Regional Weather Roundup
Issued by NWS Upton, NY

Current Version | Previous Version | Graphics & Text | Print | Product List | Glossary Off
Versions: 1 2 3 4 5 6 7 8 9 10 11 12 13 14 15 16 17 18 19 20 21 22 23 24 25 26 27 28 29 30 31 32 33 34 35 36 37 38 39 40 41 42 43 44 45 46 47 48 49 50

000
ASUS41 KOKX 290505
RWROKX

REGIONAL WEATHER ROUNDUP
NATIONAL WEATHER SERVICE NEW YORK NY
100 AM EDT FRI AUG 29 2014

NOTE: "FAIR" INDICATES FEW OR NO CLOUDS BELOW 12,000 FEET WITH NO
SIGNIFICANT WEATHER AND/OR OBSTRUCTIONS TO VISIBILITY.

NYZ071-072-176-178-NJZ106-104-290600-
NEW YORK CITY METRO AREA


CITY           SKY/WX    TMP DP  RH WIND       PRES   REMARKS
CENTRAL PARK   CLEAR     66  47  50 VRB5      30.10R
LAGUARDIA APRT CLEAR     68  50  52 N8        30.06R
KENNEDY INTL   PTCLDY    68  48  48 N9        30.08R
NEWARK/LIBERTY PTCLDY    66  48  52 N10G17    30.08R
BRNX BOT. GARD   N/A     64  48  55 NW2       30.08S
TETERBORO      CLEAR     64  47  53 NW7       30.06R
$$

NYZ177-179-078>081-290600-
LONG ISLAND NEW YORK

CITY           SKY/WX    TMP DP  RH WIND       PRES   REMARKS
FARMINGDALE    CLEAR     66  51  58 N10       30.06R
ISLIP          CLEAR     66  52  60 N12       30.04R
SHIRLEY        CLEAR     65  53  65 NW8       30.06R
WESTHAMPTON    CLEAR     63  52  67 N5        30.05R
MONTAUK POINT    N/A     68  55  63 N8        30.04R
$$

NYZ052-065-067-290600-
HUDSON VALLEY

CITY           SKY/WX    TMP DP  RH WIND       PRES   REMARKS
WHITE PLAINS   CLEAR     61  50  67 NW9       30.07R
NEWBURGH       CLEAR     55  50  82 CALM      30.11R
MONTGOMERY     CLEAR     53  49  86 CALM      30.09R
POUGHKEEPSIE   CLEAR     56  52  86 CALM      30.08R
ALBANY         PTCLDY    58  51  78 E3        30.09R
$$

NJZ001-105-106-008-010-013-015-019>022-104-290600-
NEW JERSEY

CITY           SKY/WX    TMP DP  RH WIND       PRES   REMARKS
NEWARK/LIBERTY PTCLDY    66  48  52 N10G17    30.08R
TETERBORO      CLEAR     64  47  53 NW7       30.06R
CALDWELL       CLEAR     59  48  67 CALM      30.09R
MORRISTOWN     CLEAR     55  50  82 CALM      30.09R
SOMERVILLE     CLEAR     55  49  80 CALM      30.08R
LINDEN         FAIR      68  50  53 NW3       30.10R
SUSSEX         CLEAR     54  49  83 CALM      30.11R
ANDOVER          N/A     54  50  86 CALM      30.12R
TRENTON        CLEAR     61  48  62 NW6       30.09R
MILLVILLE      CLEAR     61  53  75 N3        30.09R
ATLANTIC CITY  CLEAR     60  52  74 N8        30.08R
WRIGHTSTOWN    CLEAR     60  49  66 NW6       30.07R
TOMS RIVER     CLEAR     63  48  59 NW5       30.08R
BELMAR         CLEAR     63  46  55 NW6       30.08R
$$

PAZ047>061-062-071-290600-
EASTERN PENNSYLVANIA

CITY           SKY/WX    TMP DP  RH WIND       PRES   REMARKS
PHILADELPHIA   CLEAR     67  47  48 N10       30.11R
ALLENTOWN      CLEAR     60  47  61 NW5       30.12R
SCRANTON       CLEAR     54  49  83 CALM      30.14R
$$

CTZ002-004>006-009-010-012-RIZ004-006-007-MAZ004-011-015-290600-
SOUTHERN NEW ENGLAND
 IN CT

CITY           SKY/WX    TMP DP  RH WIND       PRES   REMARKS
BRADLEY INTL   CLEAR     59  54  83 NW6       30.05R
HARTFORD       CLEAR     64  52  64 N6        30.05R
DANBURY        CLEAR     62  50  64 N5        30.09R
WTRBRY/OXFORD  CLEAR     61  48  63 N8        30.09R
BRIDGEPORT     CLEAR     65  52  62 NW13      30.05R
MERIDEN        CLEAR     60  52  74 CALM      30.05R
NEW HAVEN      CLEAR     66  52  60 N7        30.05R
CHESTER        FAIR      64  54  68 N7        30.05R
GROTON         CLEAR     63  53  70 N9        30.02R
WILLIMANTIC    CLEAR     60  52  74 N6        30.05R

 IN RI

CITY           SKY/WX    TMP DP  RH WIND       PRES   REMARKS
PROVIDENCE     CLEAR     62  50  64 W6        30.03R
BLOCK ISLAND   CLEAR     64  54  68 N10G16    30.02R
WESTERLY       CLEAR     64  50  60 N12       30.03R

 IN MA

CITY           SKY/WX    TMP DP  RH WIND       PRES   REMARKS
BOSTON         PTCLDY    64  48  56 NW13      30.00R
WORCESTER      CLEAR     58  47  66 NW13      30.04R
WESTFIELD      CLEAR     57  53  86 CALM      30.06R
PROVINCETOWN   CLEAR     64  55  72 NW13      29.98S
NANTUCKET      CLEAR     68  50  52 N17       29.97R
$$

ANZ330-335-338-340-345-350-353-355-290600-
COASTAL MARINE OBSERVATIONS


STATION/POSITION TIME  SKY/WX   TEMP    WIND        PRES    VSBY  WAVE
                                AIR SEA DIR/SP/G                  HT/PER
                 (UTC)          (F)     (DEG/KT/KT) (MB)    (MI)  (FT/S)
NY HARB ENTRANCE NOT AVBL
4S FIRE IS       NOT AVBL
23SW MTP         0500                                 N/A           5/13
HUDSON CANYON    0500            72 72  350/ 17/ 21 1016.4          5/11
EXECUTION ROCKS  0500            68 74  330/  6/ 10   N/A
WESTERN LI SOUND 0500            68     330/  4/  8   N/A           0
CENTRAL LI SOUND 0400            69 71  340/ 14/ 17   N/A           1/ 4
EASTERN LI SOUND 0400            68 68   10/ 14/ 16   N/A
ROBBINS REEF     0400            67     340/  7/ 10   N/A
$$


>>>>>>>>>>>>>>>>>>>>>>>>>>>> KEY <<<<<<<<<<<<<<<<<<<<<<<<<<<
>                                                          <
>     SKY/WX - SKY CONDITION/PRESENT WEATHER               <
>     TMP    - TEMPERATURE IN FAHRENHEIT                   <
>     DP     - DEWPOINT IN FAHRENHEIT                      <
>     RH     - RELATIVE HUMIDITY IN PERCENT                <
>     WIND   - DIRECTION AND SPEED IN MPH                  <
>     PRES   - MEAN SEA LEVEL PRESSURE IN INCHES OF HG     <
>     WCI    - WIND CHILL INDEX                            <
>     VSB    - VISIBILITY IN MILES                         <
>     HX     - HEAT INDEX                                  <
>     TC     - TEMPERATURE IN CELSIUS                      <
>     VRB    - VARIABLE WIND DIRECTION                     <
>                                                          <
>>>>>>>>>>>>>>>>>>>>>>>>>>>> KEY <<<<<<<<<<<<<<<<<<<<<<<<<<<




USA.gov is the U.S. government's official web portal to all federal, state and local government web resources and services.